Weather History for Fryeburg, ME

Change the Weather History Date:

Wednesday, November 6, 2013

  Actual Average Record
Temperature  
Mean Temperature 42 °F -  
Max Temperature 57 °F 47 °F 62 °F (2008)
Min Temperature 26 °F 27 °F 15 °F (2011)
Degree Days  
Heating Degree Days 24    
Moisture  
Dew Point 34 °F    
Average Humidity 73    
Maximum Humidity 92    
Minimum Humidity 51    
Precipitation  
Precipitation 0.00 in - - ()
Sea Level Pressure  
Sea Level Pressure 30.26 in    
Wind  
Wind Speed 2 mph (SSW)    
Max Wind Speed 10 mph    
Max Gust Speed 18 mph    
Visibility 10 miles    
Events      
Averages and records for this station are not official NWS values.
T = Trace of Precipitation, MM = Missing Value Source: NWS Daily Summary

Daily Weather History Graph

Daily Weather History Graph

Search for Another Location

Airport:

Trip Planner

Search our weather history database for the weather conditions in past years. The results will help you decide how hot, cold, wet, or windy it might be!

Date:

Astronomy

Nov. 06, 2013 Rise Set
Actual Time 6:27 AM EST 4:27 PM EST
Civil Twilight 5:56 AM EST 4:57 PM EST
Nautical Twilight 5:22 AM EST 5:31 PM EST
Astronomical Twilight 4:48 AM EST 6:05 PM EST
Moon 9:42 AM EST (11/6) 7:25 PM EST (11/6)
Length of Visible Light 11h 00m
Length of Day
10h 00m
Waxing Crescent, 13% of the Moon is Illuminated
Nov 6
Waxing Crescent
Nov 10
First Quarter
Nov 17
Full
Nov 25
Last Quarter
Dec 2
New

Hourly Weather History & Observations

Time (EST) Temp. Windchill Dew Point Humidity Pressure Visibility Wind Dir Wind Speed Gust Speed Precip Events Conditions
12:54 AM 32.0 °F - 27.0 °F 82% 30.46 in 10.0 mi Calm Calm - N/A   Scattered Clouds
1:54 AM 28.9 °F - 25.0 °F 85% 30.45 in 10.0 mi Calm Calm - N/A   Clear
2:54 AM 28.9 °F 23.9 °F 25.0 °F 85% 30.45 in 10.0 mi West 4.6 mph - N/A   Partly Cloudy
3:54 AM 28.0 °F - 24.1 °F 85% 30.44 in 10.0 mi Calm Calm - N/A   Scattered Clouds
4:54 AM 26.1 °F - 24.1 °F 92% 30.43 in 10.0 mi Calm Calm - N/A   Clear
5:54 AM 26.1 °F - 23.0 °F 88% 30.43 in 10.0 mi Calm Calm - N/A   Clear
6:54 AM 26.1 °F - 23.0 °F 88% 30.41 in 10.0 mi Calm Calm - N/A   Clear
7:54 AM 30.0 °F - 28.0 °F 92% 30.40 in 10.0 mi Calm Calm - N/A   Clear
8:54 AM 37.0 °F - 30.0 °F 76% 30.39 in 10.0 mi Calm Calm - N/A   Clear
9:54 AM 39.0 °F - 30.9 °F 73% 30.35 in 10.0 mi Calm Calm - N/A   Clear
10:54 AM 45.0 °F - 33.1 °F 63% 30.32 in 10.0 mi Calm Calm - N/A   Clear
11:54 AM 54.0 °F - 37.0 °F 53% 30.27 in 10.0 mi SSW 5.8 mph - N/A   Clear
12:54 PM 55.9 °F - 37.9 °F 51% 30.24 in 10.0 mi SSW 9.2 mph - N/A   Clear
1:54 PM 55.9 °F - 39.9 °F 55% 30.21 in 10.0 mi SSW 9.2 mph 17.3 mph N/A   Scattered Clouds
2:54 PM 57.0 °F - 39.9 °F 53% 30.19 in 10.0 mi SSW 10.4 mph 18.4 mph N/A   Mostly Cloudy
3:54 PM 54.0 °F - 41.0 °F 62% 30.17 in 10.0 mi South 5.8 mph - N/A   Clear
4:54 PM 46.0 °F - 41.0 °F 83% 30.17 in 10.0 mi Calm Calm - N/A   Clear
5:54 PM 50.0 °F - 41.0 °F 71% 30.15 in 10.0 mi SSE 4.6 mph - N/A   Clear
6:54 PM 51.1 °F - 39.9 °F 66% 30.12 in 10.0 mi Calm Calm - N/A   Clear
7:54 PM 50.0 °F - 39.9 °F 68% 30.08 in 10.0 mi South 3.5 mph - N/A   Clear
8:54 PM 50.0 °F - 39.9 °F 68% 30.06 in 10.0 mi SSW 4.6 mph - N/A   Clear
9:54 PM 51.1 °F - 41.0 °F 68% 30.03 in 10.0 mi Calm Calm - N/A   Partly Cloudy
10:54 PM 50.0 °F - 41.0 °F 71% 29.99 in 10.0 mi Calm Calm - N/A   Clear
11:54 PM 51.1 °F - 42.1 °F 71% 29.96 in 10.0 mi South 4.6 mph - N/A   Clear